Terug naar catalogus

BREEZE-M DEB

ActiefHEO
NORAD 38592·DEBRIS·🇷🇺 Russia

Gelanceerd Mar 14, 2008 vanaf Baikonur Cosmodrome

Loading…

Volgende Passages (komende 24 uur)

TLE

VersSource: Space-Track

Epoch: Sep 14, 2026, 09:37 UTC

1 38592U 08011AP  26257.40113502  .00000222  00000-0  19587-2 0  9993
2 38592  48.7439 201.9384 6425491  41.4510  56.8273  3.16128381174205

Volg BREEZE-M DEB in realtime met AllMySat

Download on the App Store